SCP
0 0 0 0 0 0 0 0 0 0 0 0 0 0 0 0 0 0 0 0 0 0 0 0 0 0 0 0 0 0 0 0 0 0 0 0 0 0 0 0 0 0 0
0 0 0 0 0 0 0 0 0 0 0 0 0 0 0 0 0 0 0 0 0 0 0 0 0 0 0 0 0 0 0 0 0 0 0 0 0 0 0 0 0 0 0
0 0 0 0 0 0 0 0 0 0 0 0 0 0 0 0 0 0 0 0 0 0 0 0 0 0 0 0 0 0 0 0 0 0 0 0 0 0 0 0 0 0 0
0 0 0 0 0 0 0 0 0 0 0 0 0 0 0 0 0 0 0 0 0 0 0 0 0 0 0 0 0 0 0 0 0 0 0 0 0 0 0 0 0 0 0
0 0 0 0 0 0 0 0 0 0 0 0 0 0 0 0 0 0 0 0 0 0 0 0 0 0 0 0 0 0 0 0 0 0 0 0 0 0 0 0 0 0 0
0 0 0 0 0 0 0 0 0 0 0 0 0 0 0 0 0 0 0 0 0 0 0 0 0 0 0 0 0 0 0 0 0 0 0 0 0 0 0 0 0 0 0
0 0 0 0 0 0 0 0 0 0 0 0 0 0 0 0 0 0 0 0 0 0 0 0 0 0 0 0 0 0 0 0 0 0 0 0 0 0 0 0 0 0 0
0 0 0 0 0 0 0 0 0 0 0 0 0 0 0 0 0 0 0 0 0 0 0 0 0 0 0 0 0 0 0 0 0 0 0 0 0 0 0 0 0 0 0
0 0 0 0 0 0 0 0 0 0 0 0 0 0 0 0 0 0 0 0 0 0 0 0 0 0 0 0 0 0 0 0 0 0 0 0 0 0 0 0 0 0 0
0 0 0 0 0 0 0 0 0 0 0 0 0 0 0 0 0 0 0 0 0 0 0 0 0 0 0 0 0 0 0 0 0 0 0 0 0 0 0 0 0 0 0
0 0 0 0 0 0 0 0 0 0 0 0 0 0 0 0 0 0 0 0 0 0 0 0 0 0 0 0 0 0 0 0 0 0 0 0 0 0 0 0 0 0 0
0 0 0 0 0 0 0 0 0 0 0 0 0 0 0 0 0 0 0 0 0 0 0 0 0 0 0 0 0 0 0 0 0 0 0 0 0 0 0 0 0 0 0
0 0 0 0 0 0 0 0 0 0 0 0 0 0 0 0 0 0 0 0 0 0 0 0 0 0 0 0 0 0 0 0 0 0 0 0 0 0 0 0 0 0 0
0 0 0 0 0 0 0 0 0 0 0 0 0 0 0 0 0 0 0 0 0 0 0 0 0 0 0 0 0 0 0 0 0 0 0 0 0 0 0 0 0 0 0
0 0 0 0 0 0 0 0 0 0 0 0 0 0 0 0 0 0 0 0 0 0 0 0 0 0 0 0 0 0 0 0 0 0 0 0 0 0 0 0 0 0 0
0 0 0 0 0 0 0 0 0 0 0 0 0 0 0 0 0 0 0 0 0 0 0 0 0 0 0 0 0 0 0 0 0 0 0 0 0 0 0 0 0 0 0
0 0 0 0 0 0 0 0 0 0 0 0 0 0 0 0 0 0 0 0 0 0 0 -0 0 0 0 0 0 0 0 0 0 0 0 0 0 0 0 0 0 0 0
0 0 0 0 0 0 0 0 0 0 0 0 0 0 0 0 0 0 0 0 0 0 0 0 0 0 0 0 0 0 0 0 0 0 0 0 0 0 0 0 0 0 0
0 0 0 0 0 0 0 0 0 0 0 0 0 0 0 0 0 0 0 0 0 0 0 0 0 0 0 0 0 0 0 0 0 0 0 0 0 0 0 0 0 0 0
0 0 0 0 0 0 0 0 0 0 0 0 0 0 0 0 0 0 0 0 0 0 0 0 0 0 0 0 0 0 0 0 0 0 0 0 0 0 0 0 0 0 0
0 0 0 0 0 0 0 0 0 0 0 0 0 0 0 0 0 0 0 0 0 0 0 0 0 0 0 0 0 0 0 0 0 0 0 0 0 0 0 0 0 0 0
0 0 0 0 0 0 0 0 0 0 0 0 0 0 0 0 0 0 0 0 0 0 0 0 0 0 0 0 0 0 0 0 0 0 0 0 0 0 0 0 0 0 0
0 0 0 0 0 0 0 0 0 0 0 0 0 0 0 0 0 0 0 0 0 0 0 0 0 0 0 0 0 0 0 0 0 0 0 0 0 0 0 0 0 0 0
0 0 0 0 0 0 0 0 0 0 0 0 0 0 0 0 0 0 0 0 0 0 0 0 0 0 0 0 0 0 0 0 0 0 0 0 0 0 0 0 0 0 0
0 0 0 0 0 0 0 0 0 0 0 0 0 0 0 0 0 0 0 0 0 0 0 0 0 0 0 0 0 0 0 0 0 0 0 0 0 0 0 0 0 0 0
0 0 0 0 0 0 0 0 0 0 0 0 0 0 0 0 0 0 0 0 0 0 0 0 0 0 0 0 0 0 0 0 0 0 0 0 0 0 0 0 0 0 0
Wind_Speed
0 0 1 0 0 1 1 1 2 3 3 3 3 4 4 4 4 3 3 10 10 10 10 10 10 9 9 9 9 8 8 7 7 7 6 6 6 6 7 8 8 7 7
1 0 1 1 1 1 1 2 3 3 3 3 3 4 4 4 4 3 3 6 9 9 8 9 9 8 8 8 8 7 7 7 7 7 7 6 6 6 6 7 7 7 7
1 1 2 1 1 1 2 3 3 3 3 3 3 4 4 4 4 3 3 3 4 7 8 8 7 7 7 7 7 7 7 7 7 7 7 6 6 6 6 7 7 7 6
2 2 2 2 2 2 2 3 3 3 3 3 2 2 3 3 3 3 3 3 2 3 5 7 7 7 6 6 6 6 6 7 7 7 6 6 6 6 6 6 6 7 7
2 2 2 2 2 3 2 2 2 2 2 2 2 2 2 2 3 4 3 3 3 3 2 4 6 6 6 5 5 5 6 6 6 6 6 6 6 5 5 6 6 6 7
2 3 2 2 3 3 2 2 3 2 2 2 3 3 2 1 2 2 3 3 3 3 3 3 3 3 5 4 4 5 6 6 6 6 6 6 6 5 5 6 6 6 6
2 3 2 2 2 2 2 2 2 3 2 2 3 3 3 3 2 1 2 2 3 3 3 3 2 2 2 4 4 4 5 6 6 6 6 6 6 5 5 5 5 6 6
2 3 3 2 2 2 3 3 2 2 1 2 3 3 2 3 2 1 1 2 2 2 3 4 3 3 2 1 2 5 5 5 5 5 5 5 6 6 5 5 5 5 6
2 3 3 3 2 2 2 2 2 3 2 1 1 3 3 2 1 2 1 1 1 2 2 2 3 3 3 2 2 4 4 4 5 5 4 4 5 6 6 6 5 5 5
2 2 3 3 3 2 2 2 2 2 3 1 1 1 2 4 3 0 2 1 1 1 2 3 3 3 3 3 3 4 5 4 5 5 4 4 4 5 6 6 6 6 6
1 1 2 2 2 2 2 2 2 2 2 2 1 1 1 1 2 3 1 1 1 1 2 3 3 3 3 3 3 4 6 5 5 5 5 4 4 4 5 5 6 6 6
1 1 2 1 1 2 2 2 2 2 2 2 2 2 2 2 2 2 2 1 1 2 1 1 2 3 3 3 4 5 6 6 6 5 4 4 4 4 4 5 5 5 6
0 0 1 1 0 1 1 2 2 2 2 3 2 2 2 2 2 2 2 1 1 1 1 1 2 3 3 3 3 5 6 6 6 6 5 5 5 4 5 5 5 5 5
1 1 1 1 0 1 1 1 1 2 2 2 2 2 2 1 2 2 3 3 1 1 1 2 1 2 2 3 4 6 4 7 7 7 7 6 6 6 5 5 5 5 4
1 1 1 1 0 1 1 1 1 2 2 2 2 2 2 1 1 2 2 3 4 2 2 2 1 2 2 2 4 4 3 6 7 7 7 7 7 7 6 6 5 5 5
1 1 1 1 1 0 0 0 1 1 1 1 2 2 2 2 1 1 2 2 3 3 2 2 2 2 2 2 4 3 4 6 8 8 8 7 7 7 7 6 6 5 5
1 1 1 1 1 1 1 1 1 1 2 1 1 2 2 2 1 1 1 1 2 2 2 2 2 1 1 1 1 2 3 3 4 7 7 7 7 7 7 6 6 6 6
1 1 1 1 1 1 1 1 1 1 2 2 2 2 2 2 2 2 1 2 2 2 3 2 2 1 1 2 2 2 2 2 2 5 6 6 7 7 7 7 7 7 6
1 1 1 1 1 1 1 1 1 1 2 2 3 3 3 2 2 2 2 2 1 2 2 2 2 1 1 1 0 1 1 1 2 3 4 5 6 7 7 7 7 7 7
1 1 1 1 1 1 1 1 1 1 1 2 2 2 3 3 4 3 2 2 2 1 1 2 1 1 1 1 1 1 1 1 2 2 2 2 4 6 7 7 7 8 8
2 2 1 1 1 2 2 2 2 2 2 2 1 2 3 3 4 4 3 3 3 2 2 2 2 1 1 1 2 2 2 1 2 2 1 1 1 2 3 6 8 9 9
2 1 2 2 2 2 2 3 3 2 2 2 2 2 2 2 3 4 4 4 5 4 4 3 2 3 3 3 2 2 2 1 2 2 1 2 1 3 3 3 6 8 8
2 2 2 2 2 2 3 3 4 2 2 2 3 2 2 2 2 1 2 2 2 4 7 5 4 5 4 4 3 2 3 3 3 3 2 3 2 3 3 4 6 7 8
2 2 2 2 2 3 3 3 3 2 2 2 3 3 3 3 2 2 1 1 2 2 4 5 5 6 6 5 5 5 4 2 2 2 3 2 2 3 3 3 5 6 6
2 3 3 3 3 3 4 4 4 2 2 3 3 3 3 3 4 3 2 2 2 3 4 4 6 7 7 7 5 3 2 2 2 3 2 3 2 2 2 2 3 5 6
2 2 2 3 3 3 4 4 4 2 2 2 2 2 4 4 4 3 2 2 3 4 2 2 2 3 3 4 6 5 5 3 2 3 3 3 2 1 2 2 2 2 3
Wind_Direction
138 284 263 167 322 339 27 83 122 128 128 128 125 125 124 120 125 120 141 149 147 147 148 149 150 150 148 147 149 153 156 160 162 163 165 169 171 175 178 180 178 179 182
94 58 58 116 91 36 66 90 104 115 118 120 114 117 120 125 123 133 141 154 153 154 156 155 154 152 151 150 153 160 164 169 169 168 169 173 176 177 177 182 180 183 186
91 82 74 71 66 62 70 76 78 84 93 97 96 106 113 119 134 139 140 136 150 160 159 155 154 157 161 161 162 165 168 169 170 171 175 178 179 176 178 182 184 185 187
93 81 76 69 64 71 74 82 80 80 78 82 83 89 105 120 132 142 135 131 135 150 162 161 162 161 166 171 173 173 174 173 172 174 178 180 179 178 182 185 187 187 186
97 95 83 70 76 73 67 86 81 94 94 88 90 83 92 113 132 139 139 144 141 136 143 157 163 168 171 175 180 184 183 180 177 178 179 181 180 182 190 192 194 193 189
111 103 96 72 79 78 65 75 87 78 94 102 93 72 67 91 116 128 150 150 151 156 154 160 165 177 179 176 183 187 189 187 184 183 186 184 182 188 198 200 197 195 194
118 111 101 84 80 87 83 89 98 89 80 93 85 59 33 40 63 106 133 139 157 165 159 166 165 171 194 193 190 186 191 192 187 183 186 189 187 191 200 204 203 200 199
127 127 116 113 100 93 77 75 91 98 91 95 112 104 58 15 1 10 93 138 157 159 168 180 175 175 184 188 195 188 193 194 183 183 188 193 195 197 206 209 208 211 209
114 123 131 126 115 108 112 109 113 120 132 62 110 137 141 178 294 337 348 127 148 158 178 179 179 177 182 183 194 196 190 190 188 185 190 199 207 208 210 216 219 218 213
84 105 127 138 135 125 130 143 125 127 130 125 43 70 141 152 147 177 330 325 200 175 187 189 186 187 184 184 188 179 175 181 186 192 197 201 212 214 213 219 221 222 216
52 88 102 114 143 148 149 144 131 126 131 142 143 119 87 82 117 140 194 289 314 250 212 205 191 195 195 192 195 189 179 181 191 195 198 202 212 222 221 219 220 223 222
18 51 93 98 148 162 169 169 158 140 146 141 143 137 142 147 161 147 169 207 240 270 242 211 198 202 198 196 201 189 188 190 195 196 198 202 211 224 231 229 225 227 228
22 28 98 136 168 204 191 176 162 157 160 156 164 162 158 168 158 150 150 173 222 285 289 256 220 207 197 193 207 197 200 201 204 205 208 213 219 232 238 236 233 235 235
199 195 177 164 173 210 211 181 171 188 172 176 180 176 169 181 158 157 161 154 145 323 320 275 271 218 207 197 211 204 213 211 214 212 214 219 222 228 235 235 233 235 235
183 174 176 181 249 249 230 185 186 207 187 184 193 196 189 201 177 173 165 160 158 175 253 264 264 247 213 198 209 204 215 221 219 217 218 222 224 227 230 233 230 230 230
175 160 167 199 235 249 233 207 199 205 171 205 196 187 202 216 207 180 176 167 162 163 205 246 241 243 219 206 202 202 219 227 225 222 222 224 226 227 229 230 230 230 228
163 174 200 207 216 232 218 189 205 196 192 214 213 183 209 208 198 201 177 165 161 150 192 260 259 245 202 196 205 218 225 224 230 227 227 227 227 226 226 226 228 231 229
181 196 208 216 224 217 186 171 200 196 199 209 220 202 216 203 200 198 182 192 192 179 174 222 257 238 226 218 202 210 228 221 228 231 226 227 226 226 226 225 226 231 230
191 213 201 212 228 215 196 210 206 198 204 218 219 208 218 197 209 213 195 193 205 184 164 182 236 239 248 225 179 248 250 291 253 241 232 233 235 235 234 231 228 229 230
206 227 232 224 209 189 192 212 208 201 215 235 234 218 216 203 205 208 204 203 198 175 171 181 214 235 240 246 145 180 260 268 260 261 254 241 242 240 240 239 237 233 230
215 223 229 250 233 202 211 207 215 206 211 232 248 231 227 215 210 206 204 201 190 187 193 203 214 213 230 208 213 206 214 245 261 236 239 262 250 251 247 246 243 239 233
226 210 223 233 237 238 226 215 201 207 207 213 239 257 253 236 232 228 223 209 193 193 201 206 216 216 227 215 207 199 184 190 264 245 188 261 228 253 253 241 244 237 232
210 208 222 223 230 248 240 229 218 201 206 218 223 235 260 258 236 229 254 249 232 222 207 196 205 221 220 212 193 198 200 199 228 232 174 258 248 253 255 252 244 236 234
206 215 224 227 226 245 228 221 214 195 208 229 231 227 232 254 251 216 207 236 266 264 236 208 207 222 223 216 198 195 197 207 256 254 177 226 250 248 262 253 246 235 232
218 219 213 213 217 248 235 222 202 189 221 248 251 242 229 237 244 226 194 222 275 285 277 244 229 231 232 228 206 167 172 167 261 270 209 193 235 256 272 262 252 234 227
221 224 227 219 215 235 240 222 197 182 216 251 269 265 250 240 244 230 202 207 246 265 275 294 279 267 250 240 221 196 188 185 209 252 234 187 220 195 292 278 263 250 234